Weather History for KEVV - February, 2012

Change the Weather History Date:

Tuesday, February 7, 2012

  Actual Average Record
Temperature  
Mean Temperature 38 °F 34 °F  
Max Temperature 51 °F 44 °F 70 °F (1925)
Min Temperature 25 °F 25 °F -4 °F (1982)
Degree Days  
Heating Degree Days 27 31  
Month to date heating degree days 144 218  
Since 1 July heating degree days 2469 2997  
Cooling Degree Days 0 0  
Month to date cooling degree days 0 0  
Year to date cooling degree days 0 0  
Moisture  
Dew Point 31 °F    
Average Humidity 69    
Maximum Humidity 92    
Minimum Humidity 46    
Precipitation  
Precipitation T in 0.11 in 1.23 in (1921)
Month to date precipitation 0.44 0.83  
Year to date precipitation 3.83 3.93  
Snow  
Snow 0.00 in 0.10 in 2.00 in (1979)
Month to date snowfall 0.0 1.0  
Since 1 July snowfall 0.3 7.9  
Snow Depth 0.00 in    
Sea Level Pressure  
Sea Level Pressure 30.26 in    
Wind  
Wind Speed 4 mph (North)    
Max Wind Speed 13 mph    
Max Gust Speed 15 mph    
Visibility 9 miles    
Events Rain    
T = Trace of Precipitation, MM = Missing Value Source: NWS Daily Summary

Daily Weather History Graph

Daily Weather History Graph

Search for Another Location

Airport or City:

Trip Planner

Search our weather history database for the weather conditions in past years. The results will help you decide how hot, cold, wet, or windy it might be!

Date:

Astronomy

Feb. 07, 2012 Rise Set
Actual Time 6:49 AM CST 5:19 PM CST
Civil Twilight 6:22 AM CST 5:46 PM CST
Nautical Twilight 5:50 AM CST 6:18 PM CST
Astronomical Twilight 5:20 AM CST 6:48 PM CST
Moon 5:29 PM CST (2/7) 6:18 AM CST (2/7)
Length of Visible Light 11h 24m
Length of Day
10h 29m
Full, 100% of the Moon is Illuminated
Feb 7
Full
Feb 7
Full
Feb 14
Last Quarter
Feb 21
New
Feb 29
First Quarter

Hourly Weather History & Observations

Time (CST) Temp. Windchill Dew Point Humidity Pressure Visibility Wind Dir Wind Speed Gust Speed Precip Events Conditions
12:54 AM 30.9 °F - 28.0 °F 89% 30.25 in 9.0 mi Calm Calm - N/A   Clear
1:54 AM 30.0 °F - 27.0 °F 88% 30.24 in 7.0 mi Calm Calm - N/A   Clear
2:54 AM 28.9 °F - 26.1 °F 89% 30.23 in 8.0 mi Calm Calm - N/A   Clear
3:54 AM 28.0 °F - 26.1 °F 92% 30.23 in 7.0 mi Calm Calm - N/A   Clear
4:54 AM 28.0 °F - 26.1 °F 92% 30.23 in 7.0 mi Calm Calm - N/A   Clear
5:54 AM 27.0 °F - 24.1 °F 89% 30.25 in 10.0 mi Calm Calm - N/A   Clear
6:54 AM 27.0 °F - 24.1 °F 89% 30.27 in 6.0 mi Calm Calm - N/A   Clear
7:54 AM 30.0 °F - 28.9 °F 96% 30.29 in 6.0 mi Calm Calm - N/A   Clear
8:54 AM 39.0 °F - 34.0 °F 82% 30.30 in 7.0 mi Calm Calm - N/A   Clear
9:54 AM 45.0 °F 42.6 °F 32.0 °F 60% 30.30 in 8.0 mi Variable 4.6 mph - N/A   Clear
10:54 AM 46.0 °F 44.8 °F 32.0 °F 58% 30.29 in 8.0 mi WNW 3.5 mph - N/A   Clear
11:54 AM 48.0 °F - 32.0 °F 54% 30.26 in 10.0 mi Calm Calm - N/A   Clear
12:54 PM 50.0 °F - 30.9 °F 48% 30.25 in 10.0 mi NW 6.9 mph - N/A   Clear
1:54 PM 50.0 °F - 30.9 °F 48% 30.24 in 10.0 mi NW 4.6 mph - N/A   Clear
2:54 PM 50.0 °F - 33.1 °F 52% 30.25 in 10.0 mi NNW 6.9 mph - N/A   Clear
3:54 PM 48.0 °F - 33.1 °F 56% 30.25 in 10.0 mi NW 5.8 mph - N/A   Scattered Clouds
4:54 PM 46.9 °F - 33.1 °F 59% 30.25 in 10.0 mi NNW 6.9 mph - N/A   Scattered Clouds
5:54 PM 44.1 °F 39.0 °F 35.1 °F 71% 30.26 in 10.0 mi NNE 9.2 mph - N/A   Overcast
6:54 PM 42.1 °F 36.6 °F 35.1 °F 76% 30.27 in 9.0 mi NE 9.2 mph - N/A   Overcast
7:54 PM 41.0 °F 37.1 °F 34.0 °F 76% 30.27 in 10.0 mi NNE 5.8 mph - N/A   Overcast
8:54 PM 39.9 °F 35.1 °F 33.1 °F 77% 30.27 in 9.0 mi NNE 6.9 mph - N/A   Overcast
9:54 PM 39.0 °F 35.7 °F 33.1 °F 79% 30.28 in 9.0 mi North 4.6 mph - N/A   Overcast
10:54 PM 39.0 °F 35.7 °F 32.0 °F 76% 30.29 in 10.0 mi North 4.6 mph - 0.00 in Rain Light Rain
11:54 PM 37.0 °F 33.3 °F 32.0 °F 82% 30.29 in 8.0 mi NNE 4.6 mph - 0.00 in Rain Light Rain